Tracking 30074 objects as of 13-Jan-2025
HD Live streaming from Space Station
objects crossing your sky now

COSMOS 2564 (GLONASS)

Track COSMOS 2564 (GLONASS) now!
COSMOS 2564 (GLONASS) is classified as:


NORAD ID: 54377
Int'l Code: 2022-161A
Perigee: 19,117.0 km
Apogee: 19,157.1 km
Inclination: 64.7 °
Period: 675.7 minutes
Semi major axis: 25508 km
RCS: Unknown
Launch date: November 28, 2022
Source: Commonwealth of Independent States (former USSR) (CIS)
Launch site: PLESETSK MISSILE AND SPACE COMPLEX (PKMTR)
SV: 761
Your satellite tracking list
Your tracking list is empty




NASA's NSSDC Master Catalog

Two Line Element Set (TLE):
1 54377U 22161A   25011.42432471  .00000109  00000-0  00000-0 0  9994
2 54377  64.7387 210.0420 0007855 204.2429 155.7720  2.13102026 16517
Source of the keplerian elements: AFSPC